Lid_Strength_Index
1 1 1 1 1 1 1 1 1 1 2 2 3 2 3 2 2 1 4 3 3 -1 -0 3 3 2 2 3 4 4 6 7 7 7 7 5 6 4 4 5 5 4 4 3 1
1 1 1 1 1 1 1 1 1 1 1 3 3 3 3 2 2 4 0 -2 -1 -2 4 5 4 3 4 5 5 5 6 7 5 5 6 5 5 5 6 6 6 5 3 2 1
1 1 1 1 1 1 1 1 1 1 1 2 3 4 3 2 3 4 -2 -2 -2 -0 4 3 3 4 6 5 5 5 7 6 6 5 5 5 6 4 6 7 5 6 4 3 2
1 1 1 1 1 1 1 1 1 1 1 1 2 3 4 1 7 2 -3 -2 -3 3 5 4 4 5 5 6 5 7 5 5 5 4 5 6 5 6 5 6 4 3 3 3 3
1 1 1 1 1 1 2 2 1 1 2 2 1 3 3 5 4 -1 -2 -2 3 5 5 5 5 5 5 5 4 6 6 5 4 4 5 4 6 6 6 4 3 3 3 3 2
1 1 1 2 2 2 2 2 2 2 2 1 1 2 3 6 1 -1 0 0 3 5 5 6 5 4 5 5 6 5 5 5 5 5 5 6 6 6 5 3 4 3 3 2 2
2 2 2 2 2 2 2 2 2 2 1 1 1 1 4 6 1 -1 -0 1 3 4 6 5 5 5 3 6 4 5 7 6 6 5 6 5 8 8 5 4 4 4 3 3 2
2 2 2 2 2 2 2 2 2 2 1 1 1 1 6 3 0 1 2 2 2 5 5 4 5 5 4 4 5 7 6 9 7 6 6 6 10 7 4 5 5 4 4 3 3
3 2 2 2 2 2 2 3 2 0 1 1 1 2 5 3 3 2 2 3 3 4 5 5 5 5 5 7 8 7 10 9 9 6 6 7 10 6 4 5 5 4 4 4 3
3 3 3 3 2 2 3 3 2 2 1 1 1 4 4 5 4 3 2 4 5 4 5 6 5 6 6 7 10 9 9 8 9 7 7 8 9 6 5 5 5 5 4 4 4
3 3 3 3 2 3 3 1 3 3 3 5 5 6 5 5 4 4 3 4 4 4 6 6 8 8 7 6 7 6 7 8 7 7 8 8 8 7 6 6 5 5 5 4 4
3 3 3 3 3 3 2 4 5 5 6 4 4 5 4 5 6 4 3 5 5 6 5 6 8 6 5 5 7 7 7 8 8 7 7 8 9 7 6 6 5 5 5 4 4
4 4 4 4 3 3 3 5 3 3 6 5 5 6 5 5 6 5 4 5 6 6 6 7 6 5 6 7 8 8 7 8 8 8 8 9 10 9 7 6 5 4 4 4 4
3 4 4 4 4 3 3 4 3 3 7 7 5 5 5 5 7 3 3 4 6 6 6 6 5 6 6 7 6 8 6 7 9 10 11 8 12 11 8 8 6 5 5 5 4
3 4 4 5 4 5 4 3 2 3 12 6 6 3 4 6 6 6 3 4 6 6 6 7 7 7 7 6 5 7 5 7 8 9 10 11 12 10 8 10 8 6 5 4 4
3 3 4 3 3 3 3 3 2 9 12 7 6 6 6 6 6 5 5 3 4 6 6 6 5 6 6 5 5 5 7 8 8 9 13 10 11 10 11 9 8 6 5 5 4
3 4 4 2 5 3 3 4 9 11 7 8 7 6 6 6 7 7 7 6 7 9 8 7 7 5 5 7 6 7 9 12 13 12 12 10 11 9 8 7 6 6 6 5 4
4 5 3 2 2 3 4 6 11 9 8 6 6 6 8 6 6 7 8 7 6 7 7 9 10 6 5 6 8 8 8 10 14 13 11 11 12 10 7 6 6 5 5 4 4
5 0 2 2 3 3 6 10 9 8 7 8 7 8 7 7 7 7 8 8 6 6 8 8 9 5 5 5 5 8 9 7 10 10 11 9 10 9 7 7 6 6 5 5 4
2 2 4 2 2 5 8 11 9 7 7 7 9 7 8 7 7 7 7 7 6 5 4 7 9 6 6 5 5 6 5 10 9 13 14 11 11 10 10 9 7 7 6 5 4
2 5 3 2 3 6 10 9 9 7 7 7 8 8 7 8 7 7 7 7 6 5 4 5 7 8 6 7 7 7 8 8 8 10 12 13 11 8 8 7 7 6 5 5 4
3 8 2 2 7 8 9 8 9 8 6 6 6 6 7 7 7 7 7 6 5 4 6 5 7 10 8 6 6 6 7 7 10 11 10 11 11 7 7 6 6 6 5 4 3
4 5 2 2 9 9 8 8 8 8 7 7 7 6 5 7 8 6 6 5 4 5 6 5 7 11 10 8 7 7 7 7 8 8 10 12 11 7 6 6 6 6 5 4 4
5 8 6 4 4 6 8 9 8 6 6 6 6 5 6 7 6 7 6 5 4 4 5 5 7 8 10 9 7 9 8 7 8 10 10 10 9 9 8 7 6 5 5 4 4
5 8 6 8 7 6 6 7 8 8 5 5 6 6 7 9 7 8 6 6 5 7 5 5 9 8 8 8 8 8 8 8 8 8 10 9 8 8 7 7 6 5 5 4 4
7 7 6 5 6 6 8 7 7 7 7 7 7 7 7 8 8 8 7 6 7 6 6 6 9 8 10 8 8 9 8 7 8 8 8 8 8 6 5 5 6 5 5 5 4
3 4 5 8 7 7 7 7 7 6 5 5 6 6 7 7 5 5 5 5 5 6 7 7 8 9 12 9 8 11 8 8 8 7 7 9 7 6 7 6 6 5 5 5 4